Regional Weather Roundup
Issued by NWS Jackson, KY

Home | Current Version | Previous Version | Text Only | Print | Product List | Glossary On
Versions: 1 2 3 4 5 6 7 8 9 10 11 12 13 14 15 16 17 18 19 20 21 22 23 24 25 26 27 28 29 30 31 32 33 34 35 36 37 38 39 40 41 42 43 44 45 46 47 48 49 50
013
ASUS43 KJKL 271410
RWRJKL

EAST KENTUCKY HOURLY WEATHER ROUNDUP
NATIONAL WEATHER SERVICE JACKSON KY
1000 AM EDT MON MAR 27 2017

NOTE: "FAIR" INDICATES FEW OR NO CLOUDS BELOW 12,000 FEET WITH
NO SIGNIFICANT WEATHER AND/OR OBSTRUCTIONS TO VISIBILITY.

* THESE REPORTS ARE NOT UNDER NWS QUALITY CONTROL AND MAY NOT
  REPORT WEATHER SUCH AS PRECIPITATION AND FOG.

KYZ079-080-083-085-087-088-110-112-115-119-120-271500
...EASTERN KENTUCKY...

CITY           SKY/WX    TMP DP  RH WIND       PRES   REMARKS
JACKSON        SUNNY     62  53  72 CALM      30.02F
LONDON         MOSUNNY   61  53  75 CALM      30.01F
SOMERSET*      PTSUNNY   61  54  77 S3        30.01F
MONTICELLO*    MOSUNNY   68  59  73 SE7       30.01F
WILLIAMSBURG*  MOSUNNY   64  57  77 SE3       30.02S
MIDDLESBORO*   CLOUDY    57  53  86 CALM      30.06F
HARLAN APT*    CLOUDY    55  50  82 CALM      30.06S
PIKE CO APT*     N/A     60  55  83 SE5       30.04S
BIG SANDY APT* SUNNY     64  55  71 SE3       30.03S
MOREHEAD APT*  SUNNY     61  55  82 SE3       30.03S
ASHLAND*       PTSUNNY   55  54  94 CALM      30.01S
$$

KYZ035-036-041-042-044-050-067-078-099-271500
...CENTRAL KENTUCKY...

CITY           SKY/WX    TMP DP  RH WIND       PRES   REMARKS
MT STERLING*   MOSUNNY   61  55  82 S3        30.02S
FLEMING/MASON* SUNNY     60  53  79 S3        30.02S
DANVILLE*      CLOUDY    55  54  94 CALM      30.00F
LEXINGTON      PTSUNNY   61  53  75 SE6       30.00S
FRANKFORT      PTSUNNY   60  52  74 E3        29.98F
LOUISVILLE     CLOUDY    58  50  75 CALM      29.98S
LEBANON*         N/A     59  55  88 E3        29.98F
GLASGOW*       CLOUDY    58  58 100 CALM      29.99R
BOWLING GREEN  CLOUDY    57  54  89 E3        29.98F
$$

KYZ091>093-OHZ055-061-077-WVZ005-015-034-035-042-271500
...SOUTHERN OHIO/WEST VIRGINIA...

CITY           SKY/WX    TMP DP  RH WIND       PRES   REMARKS
COVINGTON      MOSUNNY   58  51  78 NE3       30.00R
COLUMBUS       PTSUNNY   56  52  86 W6        30.00S
DAYTON         PTSUNNY   55  51  86 SW8       30.00R
WILMINGTON     SUNNY     55  51  86 SW5       30.00S
HUNTINGTON     SUNNY     61  56  83 CALM      30.02R
CHARLESTON     MOSUNNY   62  56  80 CALM      30.02S
PINEVILLE*     MOSUNNY   58  55  91 MISG      30.11S
BECKLEY        CLOUDY    61  52  72 SW7       30.08S
LOGAN CO APT*    N/A     63  55  77 S5        30.05R
$$

VAZ002-007-008-TNZ017-027-036-066-071-271500
...SOUTHWEST VIRGINIA/EAST TENNESSEE...

CITY           SKY/WX    TMP DP  RH WIND       PRES   REMARKS
WISE*          CLOUDY    61  52  72 S5        30.10S
JONESVILLE*    PTSUNNY   57  54  88 CALM      30.09S
ABINGDON*      MOSUNNY   64  57  78 CALM      30.10R
BRISTOL        MOSUNNY   63  54  72 CALM      30.08S
MORRISTOWN*    PTSUNNY   63  57  82 CALM      30.06S
SEVIERVILLE*   MOSUNNY   61  52  72 CALM      30.06S
KNOXVILLE      CLOUDY    61  54  77 SW3       30.06S
LAFOLLETTE*    MOSUNNY   61  55  82 CALM      30.08S
OAK RIDGE      CLOUDY    62  53  72 CALM      30.07S
CROSSVILLE     SUNNY     64  57  78 S8        30.05F
NASHVILLE      CLOUDY    68  60  75 S13       29.98R
$$

...KEY TO REMARKS...
VSB - VISIBILITY IN MILES
WCI - WIND CHILL INDEX
HX  - HEAT INDEX

$$




USA.gov is the U.S. government's official web portal to all federal, state and local government web resources and services.